Other Public Products
Issued by NWS Charleston, SC

Current Version | Previous Version | Graphics & Text | Print | Product List | Glossary On
Versions: 1 2 3 4 5 6 7 8 9 10 11 12 13 14 15 16 17 18 19 20 21 22 23 24 25 26 27 28 29 30 31 32 33 34 35 36 37 38 39 40 41 42 43 44 45 46 47 48 49 50
571
FPUS82 KCHS 190827
OPUCHS

TEST...KCHS/KSAV Gateway Observations...TEST
National Weather Service Charleston SC
300 AM EST MON FEB 19 2018

NOTE: "fair" indicates few or no clouds below 12,000 feet with no
significant weather and/or obstructions to visibility.

SCZ050-WAZ558-NCZ071-TXZ119-213-PAZ071-DCZ001-FLZ074-172-MI076-
NYZ176-178-MAZ016-IL014-TNZ027-NJZ106-GAZ044-MD014-190900-

...Gateway Observations for Charleston International...

CITY           SKY/WX    TMP DP  RH WIND       PRES   REMARKS
Chas Airport   CLOUDY    58  54  86 NE7       30.32F
Seattle        CLOUDY    31  17  56 N16       29.99R WCI  20
Charlotte      LGT RAIN  51  51 100 NE5       30.37S FOG
Dallas DFW     CLOUDY    68  62  81 S24G32    29.84S
Dallas Love    CLOUDY    66  61  84 S18G26    29.86R
Philladelphia  MOCLDY    35  27  72 SE6       30.52S WCI  30
Wash National  CLOUDY    41  35  79 S10       30.50S
Baltimore      CLOUDY    35  34  96 CALM      30.48F
Miami          FAIR      74  64  71 E12       30.21S
Detroit        CLOUDY    32  27  81 SE5       30.03F WCI  27
Newark         MOCLDY    36  27  69 CALM      30.53R
Laguardia      FAIR      36  25  64 SE8       30.53S WCI  30
J F K          FAIR      33  30  88 E7        30.55R WCI  27
Boston Logan   FAIR      30  23  75 SW6       30.53F WCI  24
Ft. Lauderdale FAIR      74  66  76 E18       30.20F
Chicago O`Hare CLOUDY    39  33  79 S10       29.86S WCI  32
Chicago Midway CLOUDY    40  34  79 S9        29.88R WCI  34
Houston Bush   CLOUDY    70  65  84 S14G25    29.98F
Houston Hobby  MOCLDY    68  67  96 SE13      29.99F
Nashville      CLOUDY    58  55  90 S8        30.16F
Atlanta        DRZL/FOG  59  59 100 SE6       30.27S VSB 1/2

$$

GAZ044-118-TXZ119-213-NCZ071-DCZ001-MDZ014-506-PAZ021-071-NJZ106-
NYZ176-178-MAZ106-OHZ011-021-055-MIZ076-KYZ091-ILZ014-INZ047-
MNZ060-ONZ431-190900-

...Gateway Observations for Savannah International...

CITY           SKY/WX    TMP DP  RH WIND       PRES   REMARKS
Savannah Arpt  CLOUDY    60  58  92 CALM      30.31S
Atlanta        DRZL/FOG  59  59 100 SE6       30.27S VSB 1/2
Charlotte      LGT RAIN  51  51 100 NE5       30.37S FOG
Dallas DFW     CLOUDY    68  62  81 S24G32    29.84S
Houston Bush   CLOUDY    70  65  84 S14G25    29.98F
Wash National  CLOUDY    41  35  79 S10       30.50S
Wash Dulles    CLOUDY    39  34  82 S7        30.47F WCI  34
Baltimore      CLOUDY    35  34  96 CALM      30.48F
Philadelphia   MOCLDY    35  27  72 SE6       30.52S WCI  30
Newark         MOCLDY    36  27  69 CALM      30.53R
Laguardia      FAIR      36  25  64 SE8       30.53S WCI  30
J F K          FAIR      33  30  88 E7        30.55R WCI  27
Boston         FAIR      30  23  75 SW6       30.53F WCI  24
Pittsburg      CLOUDY    35  28  75 CALM      30.15F
Akron          FAIR      35  26  69 S13       30.11F WCI  26
Cleveland      FAIR      36  28  73 S13       30.11F WCI  27
Cincinnati     CLOUDY    49  38  65 S10       30.06S
Columbus       FAIR      35  30  84 S6        30.08F WCI  30
Detroit        CLOUDY    32  27  81 SE5       30.03F WCI  27
Chicago O`Hare CLOUDY    39  33  79 S10       29.86S WCI  32
Minneapolis    CLOUDY    27  23  85 N14       29.78R WCI  16
Indianapolis   LGT RAIN  45  35  68 S9        29.98F
Toronto Canada MOCLDY    32  27  80 SE7       30.12F WCI  26

$$




USA.gov is the U.S. government's official web portal to all federal, state and local government web resources and services.